Wind_Speed
33 29 27 26 22 19 17 17 19 20 19 20 21 23 21 20 20 21 21 17 16 12 15 15 8 8 12 23 33 31 26 27 28 23 22 14 2 5 8 8 13 12 13 16
30 30 29 27 24 20 18 18 20 21 21 22 20 22 23 22 22 21 20 18 17 15 9 5 1 7 12 16 26 36 32 27 27 22 23 29 23 3 8 10 13 14 15 14
29 30 25 29 30 25 21 22 25 22 23 23 24 24 25 23 21 21 20 19 18 16 13 10 9 15 10 12 17 31 37 22 28 26 26 24 32 15 15 15 15 16 11 10
30 26 28 28 28 28 24 24 26 26 28 25 26 23 22 24 24 23 23 20 19 17 15 14 16 19 17 15 12 19 30 18 31 32 24 23 28 22 25 24 23 20 15 12
29 27 24 26 30 28 29 31 29 31 31 27 27 25 23 29 26 25 25 21 21 18 20 20 16 12 19 17 14 22 22 16 28 29 29 32 36 30 23 18 21 15 14 12
27 28 26 28 30 33 34 33 34 33 33 30 25 27 26 27 28 25 25 24 20 19 20 15 6 8 8 7 12 14 16 16 33 32 42 39 45 32 23 20 24 28 29 29
26 28 32 33 34 34 36 38 36 35 33 29 26 26 28 27 26 22 21 21 24 22 12 10 14 11 10 15 22 21 14 19 31 36 42 37 40 38 19 19 20 21 19 25
27 28 27 25 29 31 33 37 37 37 33 30 27 27 27 22 24 22 23 24 27 23 21 8 14 16 21 26 28 20 23 27 39 38 46 42 26 23 25 24 19 22 22 20
22 26 29 29 29 31 37 41 39 38 35 34 34 33 32 28 28 28 30 31 31 24 17 16 24 26 23 32 27 24 24 31 32 37 47 36 22 14 17 16 20 16 17 20
22 23 25 28 28 28 33 40 40 41 41 40 39 38 32 33 34 35 35 37 37 33 25 28 31 31 35 30 28 28 22 35 28 21 44 27 10 15 26 17 23 19 17 23
25 24 24 25 29 32 32 34 33 36 40 43 42 39 40 41 43 42 43 45 43 36 30 34 34 34 38 33 36 29 29 24 35 22 42 34 16 23 22 30 32 29 30 37
30 27 27 28 29 31 33 35 35 33 32 35 35 35 33 39 40 47 48 45 38 38 39 34 36 40 39 41 36 14 18 19 27 58 37 21 41 40 44 40 39 38 33 44
33 32 31 30 30 27 26 30 32 31 33 31 34 32 33 35 36 35 38 35 31 43 41 39 36 40 41 43 28 11 4 10 27 28 29 46 42 48 48 46 56 48 50 55
34 33 30 30 29 28 27 28 30 28 29 28 30 32 32 33 33 40 41 35 33 33 47 43 42 39 43 46 35 30 27 30 22 50 35 33 55 63 62 58 58 61 62 67
31 31 30 31 31 29 30 27 25 21 25 28 29 30 32 32 34 35 37 35 31 32 34 48 51 40 42 36 31 32 36 41 44 48 66 52 55 58 64 72 73 74 73 69
34 31 30 33 32 31 28 27 23 21 23 29 35 25 29 31 33 38 34 36 35 36 41 44 44 46 38 37 40 37 44 45 52 57 64 68 71 72 76 77 78 75 70 74
34 30 32 32 32 32 31 31 24 22 28 26 26 29 31 27 29 31 27 31 32 39 46 47 55 57 53 57 63 62 54 60 63 70 76 70 68 71 75 78 73 74 74 72
32 29 30 34 35 37 34 31 21 19 19 20 21 26 31 32 35 33 35 35 31 39 45 54 60 63 58 65 68 70 65 59 65 67 75 80 81 83 86 85 78 81 88 84
32 34 35 37 41 39 35 29 23 22 18 18 23 25 27 28 31 34 38 42 37 38 42 51 55 59 62 65 73 75 77 73 71 76 79 80 78 78 85 92 96 99 101 107
29 28 33 35 35 34 28 28 27 24 28 31 34 36 36 36 38 37 37 39 40 39 41 45 51 56 59 66 72 79 79 85 92 87 92 89 94 98 100 102 105 106 108 108
38 24 36 36 32 31 32 35 32 31 34 37 41 45 46 49 50 48 43 44 45 44 45 47 47 52 64 64 68 72 82 83 81 83 83 87 92 100 102 105 105 100 104 103
42 47 44 45 37 40 39 37 38 40 41 41 43 45 44 48 52 54 51 48 49 53 52 51 49 49 52 63 67 66 70 79 85 81 78 82 91 95 97 92 97 97 102 102
41 43 49 42 37 35 40 48 47 48 46 45 46 50 53 53 57 57 52 52 52 52 51 52 53 52 53 56 62 73 71 72 75 71 85 91 88 92 94 94 98 98 102 101
45 42 45 45 39 40 42 45 50 54 55 56 60 61 60 63 60 60 53 54 57 53 51 51 50 50 51 52 55 57 61 69 79 92 89 85 89 88 89 91 92 94 96 97
41 43 48 48 49 53 55 58 61 62 59 61 62 62 68 70 59 54 55 54 46 45 46 46 48 50 53 55 56 58 60 64 68 72 75 78 80 82 83 86 89 93 97 98
32 37 43 52 56 58 61 63 67 68 69 68 67 70 61 51 51 51 47 45 45 46 47 49 50 50 51 54 57 60 63 65 66 68 72 75 77 79 83 85 89 94 92 88
Wind_Direction
241 242 242 242 242 252 248 216 226 238 231 238 250 259 253 253 255 261 263 262 277 279 271 304 339 325 27 16 5 9 25 24 20 15 7 16 263 231 239 262 263 268 277 281
240 236 238 245 245 235 238 229 230 231 242 244 247 253 258 255 255 258 261 264 268 278 281 265 357 291 303 1 19 14 6 21 24 22 21 13 5 308 275 253 270 269 265 283
234 237 236 241 243 234 228 228 233 237 241 245 243 248 254 259 263 265 263 269 278 281 283 255 252 270 315 329 3 349 356 355 6 18 11 2 2 334 281 254 262 274 281 284
238 240 239 245 245 238 229 232 239 231 234 240 250 248 257 260 260 261 262 265 272 278 281 272 254 269 277 294 342 322 345 351 350 348 359 11 357 335 307 286 272 278 270 284
239 236 240 248 247 238 226 226 228 239 240 236 245 251 248 257 253 257 261 262 268 280 288 298 261 288 320 304 307 313 332 330 341 346 342 337 336 325 288 274 263 256 271 254
235 234 234 234 234 232 228 229 231 233 238 243 239 248 245 248 256 254 261 268 273 276 290 298 253 258 323 311 326 311 305 314 330 330 330 322 322 314 281 249 257 257 258 260
240 238 238 234 235 238 234 230 232 234 235 240 243 242 247 244 250 251 255 262 261 270 268 275 231 249 246 274 287 298 273 321 323 329 326 324 324 308 277 263 267 269 271 258
240 240 240 241 249 249 244 240 240 241 239 243 243 244 247 250 250 250 250 251 259 264 275 274 282 258 277 280 285 272 263 296 314 347 327 322 324 301 273 274 284 294 292 279
247 245 246 247 242 238 237 240 239 242 248 248 247 245 246 245 251 251 252 255 256 255 270 241 273 273 277 275 284 263 264 302 294 342 332 322 327 319 291 283 276 291 289 278
255 251 251 250 248 251 244 241 243 243 244 247 250 251 252 253 253 254 257 259 261 260 250 236 246 261 267 266 265 268 277 306 261 345 353 337 359 245 267 278 275 276 282 272
264 258 253 248 244 243 244 249 246 245 246 248 250 253 250 249 247 248 248 250 252 246 220 225 237 247 259 262 261 272 285 305 281 324 337 327 287 258 280 255 259 270 268 298
260 259 253 252 250 250 252 253 255 252 251 255 257 256 259 260 256 253 254 251 241 228 220 221 228 248 253 260 260 284 274 235 242 232 266 288 254 259 277 265 261 275 268 294
252 253 253 253 258 258 257 259 257 258 259 257 260 263 261 257 261 260 257 256 242 230 230 220 224 234 245 251 266 278 318 244 187 198 206 230 246 255 260 266 270 273 271 288
251 254 260 263 262 261 258 255 260 262 263 261 263 261 258 261 264 263 260 248 247 237 230 224 232 227 238 240 241 266 256 249 226 215 207 215 235 248 259 262 273 274 284 288
249 251 252 252 252 256 261 261 264 270 272 269 264 266 264 265 265 264 270 272 255 248 239 231 237 242 247 223 237 243 251 231 232 214 213 223 233 238 250 260 274 283 289 293
246 242 246 251 256 253 251 254 255 258 264 265 270 270 265 274 270 280 283 270 265 249 247 240 234 232 219 225 250 239 244 231 231 222 224 231 242 249 257 267 279 285 286 293
245 244 238 246 250 254 249 249 255 266 270 259 268 273 277 280 280 281 278 264 257 244 247 245 226 227 241 246 264 259 254 236 231 231 231 258 265 261 271 280 283 290 292 292
239 240 241 240 239 244 240 244 246 256 267 284 297 298 298 300 295 276 274 270 268 255 249 240 232 236 244 245 254 253 253 249 248 246 246 253 259 269 276 282 288 289 290 291
235 229 230 234 244 254 250 244 235 242 253 279 295 299 313 303 297 284 279 281 279 274 266 255 252 254 244 246 250 256 256 264 266 265 268 272 276 279 280 284 292 289 288 286
223 233 239 238 255 258 241 236 233 248 273 276 287 295 303 309 318 304 293 286 279 275 266 262 260 256 251 251 253 256 260 264 265 274 275 278 279 283 286 285 283 285 285 287
216 228 247 239 242 239 233 228 237 252 271 283 293 296 297 300 305 310 297 285 279 275 271 267 265 263 255 254 252 256 261 268 274 278 280 278 279 278 277 280 282 285 285 287
219 223 234 255 247 248 247 245 249 262 269 276 283 284 288 292 295 298 298 290 285 281 278 276 272 271 268 259 258 264 262 258 263 268 276 276 274 278 281 283 284 284 283 284
227 230 237 244 247 257 253 258 266 274 277 281 287 290 296 297 296 298 292 287 286 284 280 278 277 274 265 266 267 265 269 269 269 271 273 272 275 276 277 277 279 281 281 282
232 237 246 252 258 254 259 268 272 276 280 283 283 284 289 295 295 295 288 285 284 281 277 274 274 273 273 273 272 271 269 268 269 267 272 274 275 278 279 281 282 282 283 283
247 252 249 250 257 262 264 270 274 279 281 282 283 284 288 296 293 289 290 287 280 279 280 280 280 280 279 279 279 280 280 280 281 282 282 282 282 283 284 284 285 285 284 285
241 248 250 250 255 258 262 269 276 280 283 285 287 288 289 286 284 285 283 280 279 279 280 280 281 281 281 281 281 283 284 284 283 282 283 283 284 285 287 288 290 291 291 290
Height
10932 10937 10940 10941 10943 10946 10948 10948 10951 10953 10957 10959 10960 10958 10960 10962 10963 10963 10965 10967 10966 10967 10967 10968 10969 10968 10965 10964 10965 10964 10959 10957 10955 10952 10951 10952 10952 10953 10955 10953 10951 10950 10951 10949
10926 10929 10934 10938 10939 10941 10945 10946 10949 10949 10952 10955 10957 10955 10955 10958 10959 10961 10962 10963 10964 10965 10968 10967 10967 10967 10966 10966 10965 10965 10962 10959 10957 10955 10953 10953 10954 10953 10951 10951 10950 10949 10948 10947
10920 10923 10930 10932 10933 10936 10939 10941 10943 10948 10948 10949 10953 10953 10953 10954 10956 10957 10959 10959 10960 10961 10963 10963 10964 10964 10965 10964 10963 10960 10961 10963 10960 10956 10952 10950 10949 10948 10948 10947 10950 10949 10948 10948
10915 10922 10924 10926 10929 10932 10935 10938 10939 10942 10944 10947 10947 10952 10951 10950 10951 10953 10953 10955 10957 10957 10959 10961 10961 10960 10962 10961 10960 10959 10962 10963 10961 10957 10953 10951 10950 10945 10941 10942 10944 10945 10945 10947
10912 10916 10922 10923 10925 10929 10931 10931 10934 10936 10940 10944 10946 10948 10949 10944 10948 10950 10950 10952 10952 10955 10956 10956 10958 10960 10957 10958 10960 10961 10960 10960 10957 10955 10954 10951 10949 10945 10938 10936 10938 10941 10942 10944
10907 10911 10913 10915 10918 10921 10924 10927 10929 10931 10933 10938 10944 10942 10944 10943 10945 10950 10950 10949 10951 10952 10954 10953 10954 10952 10953 10954 10954 10952 10950 10952 10953 10952 10948 10947 10942 10938 10934 10932 10934 10936 10939 10940
10902 10905 10906 10908 10909 10911 10916 10919 10922 10926 10930 10934 10937 10938 10938 10942 10944 10947 10947 10948 10945 10945 10948 10949 10951 10950 10949 10947 10942 10944 10944 10942 10941 10941 10936 10932 10933 10932 10930 10930 10931 10932 10934 10933
10896 10899 10901 10905 10906 10910 10914 10916 10919 10920 10925 10929 10932 10932 10935 10941 10939 10942 10941 10941 10939 10942 10945 10947 10945 10945 10942 10936 10932 10930 10934 10934 10933 10934 10927 10919 10922 10926 10928 10927 10927 10927 10928 10930
10893 10894 10895 10897 10900 10902 10906 10906 10911 10915 10920 10922 10924 10927 10931 10935 10935 10935 10933 10931 10933 10938 10940 10945 10938 10931 10930 10931 10926 10924 10923 10928 10925 10928 10927 10923 10918 10917 10921 10921 10920 10920 10921 10923
10889 10890 10891 10892 10894 10896 10897 10898 10903 10907 10910 10913 10915 10918 10926 10927 10928 10927 10927 10924 10925 10929 10934 10936 10931 10929 10924 10920 10918 10914 10914 10914 10911 10914 10922 10926 10916 10915 10917 10919 10916 10916 10913 10916
10883 10885 10885 10886 10887 10887 10889 10891 10895 10897 10901 10902 10904 10908 10911 10914 10912 10915 10913 10911 10914 10918 10925 10925 10926 10920 10911 10910 10905 10910 10913 10895 10918 10890 10924 10919 10919 10917 10912 10914 10913 10914 10912 10914
10877 10878 10879 10879 10880 10881 10884 10886 10887 10891 10894 10895 10897 10899 10902 10900 10901 10899 10898 10899 10906 10907 10912 10914 10914 10911 10906 10901 10901 10912 10918 10928 10913 10931 10946 10933 10920 10908 10905 10905 10900 10903 10902 10902
10870 10872 10873 10873 10873 10876 10879 10878 10880 10885 10887 10887 10886 10891 10890 10887 10886 10891 10893 10896 10901 10900 10904 10902 10902 10900 10900 10895 10899 10901 10904 10917 10924 10938 10929 10936 10918 10900 10888 10888 10896 10895 10895 10892
10863 10864 10867 10869 10867 10868 10871 10870 10873 10878 10878 10879 10878 10877 10879 10877 10879 10878 10880 10887 10890 10891 10895 10896 10891 10889 10884 10890 10895 10893 10894 10900 10901 10915 10893 10899 10898 10888 10880 10884 10886 10884 10881 10881
10857 10857 10859 10860 10859 10861 10863 10867 10870 10874 10872 10871 10872 10871 10870 10870 10870 10870 10870 10870 10879 10880 10881 10883 10881 10878 10875 10879 10884 10885 10888 10891 10887 10889 10883 10878 10874 10869 10873 10873 10870 10868 10863 10861
10848 10852 10852 10852 10853 10853 10858 10860 10865 10867 10865 10865 10863 10864 10863 10861 10859 10858 10857 10858 10859 10862 10867 10868 10866 10867 10866 10864 10869 10873 10875 10873 10868 10865 10864 10860 10860 10856 10858 10855 10851 10848 10845 10843
10840 10844 10845 10845 10845 10848 10854 10852 10858 10860 10856 10856 10857 10857 10855 10854 10852 10848 10847 10847 10849 10853 10853 10853 10856 10857 10859 10855 10848 10852 10856 10860 10861 10857 10848 10840 10837 10837 10837 10836 10834 10830 10826 10824
10834 10837 10839 10837 10835 10838 10843 10847 10852 10852 10849 10847 10847 10847 10846 10845 10843 10841 10839 10841 10840 10841 10840 10841 10842 10843 10843 10841 10837 10834 10832 10832 10832 10832 10832 10829 10823 10818 10817 10816 10812 10808 10807 10805
10827 10828 10829 10828 10829 10832 10836 10839 10843 10843 10844 10842 10843 10843 10843 10840 10835 10834 10834 10831 10831 10831 10829 10829 10829 10830 10829 10828 10823 10819 10818 10815 10812 10810 10809 10806 10803 10799 10798 10796 10791 10786 10787 10787
10816 10820 10823 10823 10825 10826 10828 10830 10832 10835 10833 10832 10830 10830 10829 10829 10827 10824 10822 10822 10822 10821 10821 10821 10820 10815 10814 10813 10811 10809 10804 10800 10798 10795 10794 10791 10788 10785 10782 10780 10779 10775 10768 10762
10804 10810 10812 10816 10818 10818 10820 10822 10823 10825 10824 10823 10821 10822 10823 10820 10817 10816 10814 10812 10810 10809 10809 10808 10805 10804 10803 10804 10805 10801 10799 10793 10788 10785 10782 10783 10782 10780 10772 10766 10758 10748 10742 10735
10798 10801 10805 10808 10814 10812 10812 10813 10815 10816 10817 10817 10817 10816 10816 10815 10812 10807 10804 10801 10798 10796 10795 10794 10793 10791 10790 10791 10790 10789 10787 10788 10785 10779 10771 10766 10762 10755 10747 10739 10731 10722 10718 10709
10793 10796 10797 10801 10802 10802 10801 10802 10802 10802 10804 10805 10804 10801 10800 10800 10798 10796 10792 10789 10786 10783 10780 10777 10775 10773 10774 10773 10770 10770 10768 10768 10767 10762 10760 10754 10744 10734 10727 10718 10709 10700 10690 10682
10784 10791 10792 10790 10790 10790 10789 10790 10789 10788 10789 10790 10790 10790 10788 10784 10782 10780 10779 10776 10772 10769 10766 10764 10764 10763 10761 10758 10756 10753 10749 10746 10742 10739 10734 10726 10718 10709 10701 10695 10685 10675 10664 10654
10778 10780 10784 10785 10782 10781 10781 10778 10775 10775 10776 10775 10775 10774 10771 10767 10764 10762 10760 10758 10757 10755 10752 10749 10747 10745 10742 10739 10735 10730 10726 10723 10717 10711 10706 10701 10693 10687 10680 10669 10658 10645 10632 10624
10769 10771 10773 10775 10775 10775 10773 10768 10763 10759 10756 10756 10758 10757 10753 10751 10750 10748 10745 10743 10742 10740 10738 10734 10732 10729 10725 10721 10717 10713 10709 10703 10698 10693 10687 10680 10673 10664 10653 10643 10631 10613 10601 10588